Weather History for Detroit Metro, MI

Change the Weather History Date:

Wednesday, August 7, 2013

  Actual Average Record
Temperature  
Mean Temperature 76 °F 73 °F  
Max Temperature 85 °F 82 °F 100 °F (1918)
Min Temperature 67 °F 64 °F 47 °F (1903)
Degree Days  
Heating Degree Days 0 0  
Month to date heating degree days 0 0  
Since 1 June heating degree days 27 37  
Since 1 July heating degree days 4 2  
Cooling Degree Days 11 8  
Month to date cooling degree days 39 56  
Year to date cooling degree days 605 542  
Since 1 June cooling degree days 502 494  
Growing Degree Days 25 (Base 50)    
Moisture  
Dew Point 66 °F    
Average Humidity 74    
Maximum Humidity 93    
Minimum Humidity 55    
Precipitation  
Precipitation 0.01 in 0.11 in 1.26 in (1916)
Month to date precipitation 0.04 0.76  
Year to date precipitation 25.04 20.19  
Snow  
Snow 0.00 in 0.00 in 0.00 in ()
Month to date snowfall 0.0 0.0  
Since 1 June snowfall 0.0 0.0  
Since 1 July snowfall 0.0 0.0  
Snow Depth 0.00 in    
Sea Level Pressure  
Sea Level Pressure 29.88 in    
Wind  
Wind Speed 7 mph (South)    
Max Wind Speed 18 mph    
Max Gust Speed 22 mph    
Visibility 9 miles    
Events Rain , Thunderstorm    
T = Trace of Precipitation, MM = Missing Value Source: NWS Daily Summary

Daily Weather History Graph

Daily Weather History Graph

Search for Another Location

Airport:

Trip Planner

Search our weather history database for the weather conditions in past years. The results will help you decide how hot, cold, wet, or windy it might be!

Date:

Astronomy

Aug. 07, 2013 Rise Set
Actual Time 6:32 AM EDT 8:44 PM EDT
Civil Twilight 6:01 AM EDT 9:15 PM EDT
Nautical Twilight 5:23 AM EDT 9:53 PM EDT
Astronomical Twilight 4:41 AM EDT 10:35 PM EDT
Moon 7:22 AM EDT (8/7) 8:48 PM EDT (8/7)
Length of Visible Light 15h 14m
Length of Day
14h 12m
New Moon, 1% of the Moon is Illuminated
Aug 7
New Moon
Aug 14
First Quarter
Aug 20
Full
Aug 28
Last Quarter
Sep 5
New

Hourly Weather History & Observations

Time (EDT) Temp. Heat Index Dew Point Humidity Pressure Visibility Wind Dir Wind Speed Gust Speed Precip Events Conditions
12:53 AM 70.0 °F - 64.0 °F 81% 29.92 in 10.0 mi SSE 3.5 mph - N/A   Mostly Cloudy
1:53 AM 69.1 °F - 64.0 °F 84% 29.90 in 10.0 mi SSE 4.6 mph - N/A   Overcast
2:53 AM 69.1 °F - 64.0 °F 84% 29.90 in 10.0 mi South 3.5 mph - N/A   Overcast
3:53 AM 66.9 °F - 63.0 °F 87% 29.89 in 8.0 mi South 4.6 mph - N/A   Mostly Cloudy
4:53 AM 66.9 °F - 64.0 °F 90% 29.87 in 8.0 mi South 9.2 mph - N/A   Overcast
5:53 AM 66.9 °F - 64.9 °F 93% 29.87 in 8.0 mi South 6.9 mph - N/A   Overcast
6:09 AM 68.0 °F - 64.4 °F 88% 29.89 in 6.0 mi South 6.9 mph - N/A   Overcast
6:42 AM 68.0 °F - 64.4 °F 88% 29.88 in 6.0 mi South 4.6 mph - N/A   Mostly Cloudy
6:53 AM 66.9 °F - 64.9 °F 93% 29.87 in 5.0 mi South 3.5 mph - N/A   Mostly Cloudy
7:53 AM 69.1 °F - 66.0 °F 90% 29.90 in 6.0 mi South 4.6 mph - N/A   Mostly Cloudy
8:36 AM 69.8 °F - 64.4 °F 83% 29.92 in 6.0 mi North 5.8 mph - N/A   Haze
8:53 AM 70.0 °F - 63.0 °F 78% 29.91 in 10.0 mi North 4.6 mph - N/A   Overcast
9:53 AM 72.0 °F - 62.1 °F 71% 29.91 in 10.0 mi Calm Calm - 0.00 in Rain Light Rain
10:53 AM 73.0 °F - 63.0 °F 71% 29.92 in 10.0 mi Calm Calm - 0.00 in   Overcast
11:53 AM 71.1 °F - 63.0 °F 75% 29.90 in 9.0 mi South 11.5 mph - 0.00 in Rain Light Rain
12:01 PM 69.8 °F - 64.4 °F 83% 29.89 in 10.0 mi South 13.8 mph - 0.00 in Rain , Thunderstorm Light Thunderstorms and Rain
12:23 PM 69.8 °F - 64.4 °F 83% 29.86 in 10.0 mi SSE 10.4 mph 21.9 mph 0.01 in Rain Light Rain
12:53 PM 71.1 °F - 64.9 °F 81% 29.86 in 10.0 mi SSE 5.8 mph - 0.01 in   Mostly Cloudy
1:53 PM 75.9 °F - 66.9 °F 74% 29.86 in 10.0 mi South 8.1 mph - N/A   Mostly Cloudy
2:53 PM 79.0 °F - 66.9 °F 66% 29.87 in 10.0 mi South 6.9 mph - N/A   Mostly Cloudy
3:53 PM 84.0 °F 86.3 °F 66.0 °F 55% 29.86 in 10.0 mi SW 11.5 mph - N/A   Mostly Cloudy
4:53 PM 84.0 °F 86.3 °F 66.0 °F 55% 29.85 in 10.0 mi SW 15.0 mph - N/A   Mostly Cloudy
5:53 PM 84.0 °F 87.8 °F 69.1 °F 61% 29.85 in 10.0 mi SSW 13.8 mph - N/A   Mostly Cloudy
6:53 PM 82.9 °F 87.0 °F 70.0 °F 65% 29.84 in 10.0 mi SSW 16.1 mph - N/A   Scattered Clouds
7:53 PM 81.0 °F 84.4 °F 70.0 °F 69% 29.85 in 10.0 mi SSW 12.7 mph - N/A   Scattered Clouds
8:53 PM 78.1 °F - 71.1 °F 79% 29.86 in 10.0 mi South 8.1 mph - N/A   Scattered Clouds
9:53 PM 75.9 °F - 71.1 °F 85% 29.88 in 10.0 mi South 5.8 mph - N/A   Partly Cloudy
10:53 PM 75.9 °F - 71.1 °F 85% 29.90 in 9.0 mi South 4.6 mph - N/A   Partly Cloudy
11:53 PM 75.0 °F - 71.1 °F 87% 29.90 in 8.0 mi Calm Calm - N/A   Partly Cloudy